Regional Weather Roundup
Issued by NWS

Home | Current Version | Previous Version | Text Only | Print | Product List | Glossary Off
Versions: 1 2 3 4 5 6 7 8 9 10 11 12 13 14 15 16 17 18 19 20 21 22 23 24 25 26 27 28 29 30 31 32 33 34 35 36 37 38 39 40 41 42 43 44 45 46 47 48 49 50

092
ASUS45 KPSR 240410
RWRAZ

ARIZONA HOURLY REGIONAL WEATHER ROUNDUP
NATIONAL WEATHER SERVICE PHOENIX AZ
900 PM MST TUE MAY 23 2017

NOTE: FAIR INDICATES FEW OR NO CLOUDS BELOW 12,000 FEET WITH NO
SIGNIFICANT WEATHER AND/OR OBSTRUCTIONS TO VISIBILITY.

AZZ001>003-036-240500-
NORTHWEST ARIZONA

CITY           SKY/WX    TMP DP  RH WIND       PRES   REMARKS
BULLHEAD CITY  CLEAR     93  28  10 CALM      29.73R
KINGMAN        CLEAR     73  23  15 MISG      29.96R
$$

AZZ004>008-015-016-018-240500-
NORTH CENTRAL ARIZONA

CITY           SKY/WX    TMP DP  RH WIND       PRES   REMARKS
GRAND CANYON   HAZE      49  27  42 CALM      30.21R VSB 1
WILLIAMS       CLEAR     55  28  35 S8        30.21S
PRESCOTT       CLEAR     70  27  20 W3        30.08R
FLAGSTAFF      CLEAR     54  27  35 CALM      30.22S
PAYSON         PTCLDY    73  25  16 N7        30.11R
PAGE           CLEAR     76  35  22 NE5       30.01R
$$

AZZ009>014-017-240500-
NORTHEAST ARIZONA

CITY           SKY/WX    TMP DP  RH WIND       PRES   REMARKS
WINSLOW        CLEAR     64  22  20 CALM      30.08R
SAINT JOHNS    CLEAR     66  24  20 N10       30.13R
WINDOW ROCK    CLEAR     56  24  29 N7        30.20R
SHOW LOW       CLEAR     61  23  23 N6        30.20R
$$

AZZ540-542>544-546-548-240500-
GREATER PHOENIX AREA

CITY           SKY/WX    TMP DP  RH WIND       PRES   REMARKS
PHOENIX        MOCLDY    95  22   7 SW3       29.74R
BUCKEYE        CLEAR     86  27  11 SW7       29.75R
LUKE AFB       CLEAR     89  31  12 SW7       29.73R
DEER VALLEY    CLEAR     92  18   6 CALM      29.77R
SCOTTSDALE     CLEAR     92  25   9 CALM      29.79R
MESA-GATEWAY   CLEAR     90  27  10 SW5       29.78R
CHANDLER       CLEAR     91  25   9 SW6       29.76R
$$

AZZ539-553-240500-
SOUTHWEST MARICOPA COUNTY AND PINAL COUNTY

CITY           SKY/WX    TMP DP  RH WIND       PRES   REMARKS
CASA GRANDE    PTCLDY    89  20   8 W3        29.79S
GILA BEND      CLEAR     92  10   5 SE5       29.73R
$$

AZZ503-504-507>509-240500-
SOUTHEAST ARIZONA

CITY           SKY/WX    TMP DP  RH WIND       PRES   REMARKS
TUCSON         CLEAR     89  23   9 NW7       29.89R
DAVIS-MONTHAN  CLEAR     86  21   9 N6        29.89R
NOGALES        CLEAR     75  18  11 CALM      29.98R
SIERRA VISTA   CLEAR     75  15  10 W10       30.05R
DOUGLAS        CLEAR     76  17  11 N12       29.98R
SAFFORD        CLEAR     83  19   9 N12       29.89R
$$

AZZ532-240500-
SOUTHWEST ARIZONA

CITY           SKY/WX    TMP DP  RH WIND       PRES   REMARKS
YUMA           CLEAR     94  38  14 W9        29.72R
$$

CAZ041-043-047-048-061-525>527-560>570-240500-
SOUTHERN CALIFORNIA

CITY           SKY/WX    TMP DP  RH WIND       PRES   REMARKS
DOWNTOWN L.A.  MOCLDY    61  56  83 CALM      29.91R
L.A. AIRPORT   CLOUDY    59  57  93 SW6       29.91R
SAN DIEGO      PTCLDY    64  60  87 W7        29.93R
BURBANK        CLEAR     67  55  65 E13       29.89R
ONTARIO        PTCLDY    73  52  47 W10       29.90R
RIVERSIDE      CLEAR     76  48  37 W7        29.89R
PALM SPRINGS   CLEAR     98  39  13 NW17      29.75R
EL CENTRO NAS  PTCLDY    94  36  13 W16       29.73R
IMPERIAL       CLEAR     91  44  19 W10       29.71R
BLYTHE         CLEAR     96  30   9 S3        29.72R
NEEDLES        CLEAR     98  21   6 W9        29.74S
$$

NVZ020-UTZ003-240500-
SOUTHERN NEVADA-UTAH

CITY           SKY/WX    TMP DP  RH WIND       PRES   REMARKS
LAS VEGAS      CLEAR     93  22   7 S3        29.82S
SALT LAKE CITY PTCLDY    69  42  37 E8        30.00F
$$

NMZ009-TXZ055-240500-
NEW MEXICO-WEST TEXAS

CITY           SKY/WX    TMP DP  RH WIND       PRES   REMARKS
ALBUQUERQUE    CLEAR     69  19  15 N5        30.08R
EL PASO        CLEAR     72  37  28 E12       30.00R
$$


........................KEY........................
SKY/WX - SKY CONDITION/WEATHER
TMP    - TEMPERATURE IN FAHRENHEIT
DP     - DEW POINT IN FAHRENHEIT
RH     - RELATIVE HUMIDITY IN PERCENT
WIND   - DIRECTION AND SPEED IN MILES PER HOUR (MPH)
VRB    - VARIABLE WIND DIRECTION
PRES   - MEAN SEA LEVEL PRESSURE IN INCHES OF MERCURY
         F - FALLING PRESSURE   R - RISING PRESSURE
         S - STEADY PRESSURE
VSB    - VISIBILITY IN MILES
HX     - HEAT INDEX IN FAHRENHEIT
WCI    - WIND CHILL INDEX IN FAHRENHEIT
TC     - TEMPERATURE IN CELSIUS WHICH IS ALSO KNOWN AS
         TEMPERATURE IN CENTIGRADE
AFB    - AIR FORCE BASE
         LUKE AFB IS LUKE AIR FORCE BASE
         DAVIS-MONTHAN IS DAVIS-MONTHAN AIR FORCE BASE
NAS    - NAVAL AIR STATION
         EL CENTRO NAS IS EL CENTRO NAVAL AIR STATION
N/A    - NOT AVAILABLE





USA.gov is the U.S. government's official web portal to all federal, state and local government web resources and services.